Hourly Weather Roundup
Issued by NWS Central Illinois

Home | Current Version | Previous Version | Text Only | Print | Product List | Glossary On
Versions: 1 2 3 4 5 6 7 8 9 10 11 12 13 14 15 16 17 18 19 20 21 22 23 24 25 26 27 28 29 30 31 32 33 34 35 36 37 38 39 40 41 42 43 44 45 46 47 48 49 50
000
NZUS43 KILX 042310
HWRILX

AREA WEATHER ROUNDUP
NATIONAL WEATHER SERVICE, LINCOLN IL
600 PM CDT FRI SEP 04 2015


CITY           SKY/WX    TMP DP  RH WIND       PRES   REMARKS
BLOOMINGTON    MOSUNNY   94  69  43 CALM      30.00S HX  99
CHAMPAIGN      MOSUNNY   89  69  51 CALM      30.00S HX  93
DANVILLE       MOSUNNY   87  72  60 CALM      29.98R HAZE    HX  94
DECATUR        MOSUNNY   92  65  40 SW8       29.99S HX  94
EFFINGHAM      SUNNY     89  64  42 S6        30.01S HX  90
FLORA          SUNNY     92  65  41 SW7       29.99F HX  93
GALESBURG      SUNNY     89  70  54 SW6       29.97S HX  94
JACKSONVILLE   MOSUNNY   92  67  43 S6        29.98S HX  96
LACON          SUNNY     90  68  48 CALM      29.96F HX  94
LAWRENCEVILLE  SUNNY     92  65  40 SW6       29.99F HX  94
LITCHFIELD     SUNNY     90  65  43 SW6       30.00S HX  91
$$


CITY           SKY/WX    TMP DP  RH WIND       PRES   REMARKS
LINCOLN        MOSUNNY   94  63  35 W5        29.96S HX  95
MACOMB         SUNNY     91  65  41 S5        29.99F HX  93
MATTOON        MOSUNNY   91  68  46 S7        29.99S HX  95
MT CARMEL AP   MOSUNNY   90  63  40 SW6       29.99S HX  90
OLNEY-NOBLE AP SUNNY     88  70  55 SE3       30.00S HX  92
PARIS          MOSUNNY   85  68  56 SW5       30.00S HX  89
PEORIA         SUNNY     94  67  41 W3        29.97S HX  97
PONTIAC        PTSUNNY   90  72  55 CALM      30.00R HX  96
RANTOUL        NOT AVBL
ROBINSON       SUNNY     90  66  45 SW5       30.00F HX  93
SPRINGFIELD    SUNNY     91  67  44 SW8       29.98S HX  94
TAYLORVILLE    SUNNY     90  68  48 SW6       29.99S HX  93
$$

...REGIONAL REPORTS...


CITY           SKY/WX    TMP DP  RH WIND       PRES   REMARKS
CHICAGO O`HARE MOSUNNY   78  67  68 NE10      30.01S HX  80
KANKAKEE       PTSUNNY   81  68  65 E13       30.01S HX  83
MOLINE         SUNNY     90  68  48 S6        29.95S HX  94
MOUNT STERLING SUNNY     89  70  53 S5        29.97F HX  93
MOUNT VERNON   SUNNY     91  66  43 S6        30.00S HX  94
PITTSFIELD     SUNNY     91  68  47 S6        29.99S HX  94
QUINCY         MOSUNNY   88  69  53 S3        29.97S HX  92
ROCKFORD       MOSUNNY   89  70  53 W3        30.00S HX  94
$$


CITY           SKY/WX    TMP DP  RH WIND       PRES   REMARKS
BURLINGTON     SUNNY     90  69  50 S6        29.96S HX  94
CEDAR RAPIDS   SUNNY     87  73  62 S6        29.95F HX  94
DES MOINES     MOSUNNY   89  70  53 S9        29.93S HX  94
KIRKSVILLE     SUNNY     89  67  47 S8        29.97F HX  92
OTTUMWA        MOSUNNY   88  71  57 S8        29.93F HX  94
ST LOUIS       MOSUNNY   92  67  43 SW6       29.99S HX  95
$$


CITY           SKY/WX    TMP DP  RH WIND       PRES   REMARKS
TERRE HAUTE    MOSUNNY   91  66  43 S7        29.99S HX  93
EVANSVILLE     SUNNY     92  64  39 NW5       30.00S HX  93
INDIANAPOLIS   CLOUDY    85  65  51 NE17      30.02R THUNDER HX  86
LAFAYETTE      CLOUDY    79  64  60 E5        30.01R HX  81
MADISON        MOSUNNY   82  71  69 NE9       29.99S HX  86
MILWAUKEE      MOSUNNY   70  65  84 E9        30.03F
$$





USA.gov is the U.S. government's official web portal to all federal, state and local government web resources and services.